Theta_e
322 323 324 325 333 329 324 323 322 321 321 318 318 319 320 320 320 321 324 326 327 329 334 335 335 333 340 341 341 341 341 340 340 341 339 338 338 339 338 337 332 326 326 332 331 328 332 341 342
322 323 324 329 328 328 322 321 321 319 318 318 319 319 318 318 316 318 323 322 320 328 331 338 337 334 338 341 339 340 339 339 340 341 340 340 339 338 338 337 335 329 329 334 334 333 334 342 340
322 321 327 328 323 322 323 320 318 319 318 318 318 318 318 317 315 317 316 317 321 325 330 335 338 339 339 341 340 339 338 338 338 338 340 340 338 339 337 336 335 334 335 334 333 333 335 342 340
320 323 322 324 321 321 320 317 317 318 317 318 317 318 317 315 316 315 315 315 318 322 327 331 334 336 338 340 341 340 339 338 338 337 337 338 338 336 335 334 333 334 334 338 337 334 334 341 340
319 321 325 323 321 319 319 317 317 318 318 316 316 317 314 313 312 313 315 317 319 320 324 329 330 330 331 338 339 339 338 339 337 336 335 335 335 335 332 332 331 336 335 337 338 336 333 340 340
321 320 324 324 320 319 318 316 317 316 317 315 316 315 313 313 312 312 311 312 313 317 321 324 327 329 331 330 337 338 337 337 337 336 336 334 334 332 331 333 334 334 333 332 335 337 331 339 340
323 324 324 320 320 320 318 316 315 315 314 313 313 315 312 309 310 309 308 308 308 309 309 311 317 324 328 331 330 331 336 337 337 337 335 335 333 332 330 330 334 333 332 331 332 334 334 339 339
320 321 322 320 319 320 316 317 315 315 315 312 312 313 311 307 308 307 306 306 306 307 309 310 309 310 319 324 328 331 332 331 333 336 335 335 333 331 331 329 330 330 331 330 331 333 335 338 338
320 324 322 319 319 319 317 316 314 315 313 312 312 308 307 306 306 305 305 305 305 305 305 307 310 312 310 312 322 328 330 331 332 329 332 334 333 331 330 330 330 329 329 330 330 332 335 337 336
321 324 320 317 316 316 315 315 314 314 312 312 311 306 306 304 304 304 303 303 303 303 302 302 304 309 313 314 314 320 324 330 330 330 329 330 331 331 330 331 331 331 330 332 331 332 335 334 336
319 320 317 317 317 314 315 313 314 314 312 309 307 305 304 304 303 302 302 301 301 301 300 300 302 303 306 310 316 316 320 322 325 328 330 330 331 332 331 330 331 332 332 331 331 333 332 333 336
317 317 317 317 314 314 314 313 312 311 310 306 304 304 303 301 301 300 300 300 300 300 299 299 300 301 303 303 308 315 317 318 321 324 327 329 330 331 330 330 330 330 331 330 332 331 333 332 332
318 316 315 314 314 313 313 313 312 309 307 304 304 303 301 300 300 299 299 299 299 299 299 298 299 300 301 302 302 305 311 318 318 318 321 324 328 329 329 330 330 330 330 329 331 331 330 327 328
316 315 314 314 313 313 313 313 313 308 305 303 304 302 300 300 300 299 298 298 297 297 299 298 298 298 300 301 303 302 309 310 318 319 320 319 324 327 328 328 329 330 329 327 330 329 328 325 325
314 315 313 313 313 313 312 313 312 307 305 304 302 301 301 300 300 299 297 296 295 296 298 298 297 297 297 297 299 303 305 308 309 314 318 320 320 324 326 327 328 329 328 328 326 326 325 322 319
314 315 317 314 313 312 313 312 308 306 306 302 300 298 298 299 300 299 297 295 295 295 296 296 297 296 295 295 296 300 303 303 305 309 311 315 319 322 323 325 327 328 327 327 325 324 323 323 323
316 317 313 316 312 312 312 313 308 306 304 301 299 297 297 298 297 295 295 295 295 294 294 293 295 296 295 294 295 297 300 303 302 301 303 306 311 318 321 323 326 327 327 326 326 325 325 323 322
312 311 312 314 313 311 312 312 307 305 301 298 297 297 296 295 294 295 295 294 294 294 293 293 293 293 294 294 294 294 296 300 301 300 300 300 306 309 312 321 323 323 326 325 324 324 323 323 322
311 312 312 313 313 311 311 309 307 303 300 298 296 295 295 294 294 295 294 293 292 293 293 292 293 293 293 294 294 293 295 295 299 299 300 300 303 301 305 306 319 323 324 324 323 322 321 322 321
313 312 312 311 312 310 309 309 303 301 300 298 296 296 295 293 293 294 294 292 292 292 292 292 293 293 293 293 293 293 293 295 295 298 299 300 299 300 300 304 306 319 322 323 322 321 321 321 321
311 311 311 311 309 307 307 307 303 299 298 298 297 297 294 292 293 292 292 292 291 292 292 292 292 292 292 293 293 292 293 294 295 295 297 299 299 299 296 302 303 305 322 322 321 320 320 320 321
311 306 307 308 308 306 305 305 305 298 297 297 296 293 292 292 292 292 292 291 291 292 292 291 291 291 291 292 291 292 291 292 293 294 295 296 299 299 298 299 303 304 304 320 322 320 320 320 319
310 305 305 306 306 306 305 304 305 300 298 297 295 294 292 292 292 290 291 292 291 291 291 290 289 289 289 288 287 288 290 290 290 292 294 295 297 298 299 295 300 303 303 309 321 320 320 320 319
305 306 306 305 304 306 305 305 306 301 301 296 294 292 292 292 291 291 292 291 291 290 290 289 288 287 286 284 282 282 284 284 287 290 292 293 295 298 298 296 295 301 303 305 319 320 320 320 319
307 305 306 310 308 309 302 301 303 297 296 294 293 292 291 290 290 290 291 291 290 289 289 287 285 284 282 281 280 280 280 281 283 285 289 293 295 297 298 297 295 298 301 304 314 319 319 319 319
305 304 305 306 310 307 300 300 303 297 295 294 293 292 291 290 290 290 290 290 289 289 288 286 284 283 281 280 279 279 279 279 280 283 285 286 291 296 297 297 295 295 297 302 304 317 319 318 318
305 303 301 303 294 298 299 302 298 296 295 294 293 291 290 290 290 290 290 289 289 288 286 284 283 281 280 279 278 278 278 278 279 280 282 284 286 292 297 297 296 294 295 298 302 303 317 317 317
298 300 300 299 296 300 302 302 301 296 295 293 292 291 290 290 290 289 289 289 288 287 285 284 282 280 279 278 277 276 277 277 277 279 280 282 285 287 295 296 296 294 293 296 301 303 309 316 316
296 296 296 297 301 301 299 300 295 294 295 293 292 291 290 290 289 288 288 288 287 286 284 282 281 279 278 277 276 275 275 275 277 277 278 280 282 283 287 296 296 295 293 293 296 303 310 316 315
295 297 296 295 298 295 297 297 298 297 293 292 292 290 290 290 288 288 288 287 286 285 283 281 280 278 277 276 275 275 273 275 274 276 278 279 279 283 284 286 295 295 294 292 295 299 302 314 315
Wind_Speed
8 8 9 5 2 2 5 5 1 9 5 6 6 5 2 4 5 2 7 13 11 9 5 10 7 10 12 14 14 15 14 14 13 12 12 12 12 12 13 13 14 14 14 14 13 13 13 13 16
4 6 5 4 1 2 4 4 8 7 6 5 3 2 4 5 9 4 9 21 18 11 9 7 11 7 12 14 15 16 16 16 16 14 13 13 13 13 13 14 15 14 14 14 14 13 15 15 17
6 5 2 3 2 5 3 7 8 4 7 6 5 2 3 4 10 7 25 21 20 14 12 11 11 10 11 13 14 16 18 17 17 17 16 15 15 15 14 15 16 16 14 14 14 15 16 16 19
6 3 4 1 5 5 5 8 8 7 5 5 4 2 6 31 13 22 25 24 22 16 12 11 15 15 15 14 14 16 18 19 19 20 20 18 17 18 17 17 17 18 17 16 15 16 18 17 21
5 4 3 3 4 4 5 7 5 1 4 7 3 5 11 28 28 29 26 24 25 21 16 13 15 20 20 15 16 18 20 22 21 22 22 22 21 20 18 18 18 20 20 18 17 18 19 19 23
3 2 3 1 5 6 6 8 5 9 5 8 3 4 7 28 34 29 32 31 29 25 22 18 16 18 20 20 19 20 21 24 25 25 24 24 23 22 21 19 21 20 19 20 20 20 21 21 25
3 3 3 4 4 3 6 6 7 6 10 7 7 4 8 27 30 31 33 33 35 35 33 29 23 18 19 21 22 23 24 25 26 27 26 26 26 25 24 24 23 23 22 21 22 22 23 25 26
2 2 4 4 6 3 4 3 8 7 5 8 9 7 6 18 25 26 28 30 31 33 35 38 36 25 22 20 23 22 23 26 28 27 29 29 28 27 26 25 24 24 23 23 23 23 25 28 27
2 2 2 4 4 4 4 7 8 5 9 11 12 13 13 21 23 25 24 28 30 32 33 36 35 37 31 25 22 22 22 25 25 27 29 32 30 29 27 27 27 25 24 23 22 22 27 29 28
2 2 5 5 7 7 8 6 4 5 10 6 10 16 19 20 22 22 23 23 28 31 33 35 35 36 36 32 26 25 25 25 25 27 29 29 32 30 29 24 24 23 24 22 21 22 26 27 33
3 2 4 4 8 7 4 5 0 5 6 9 8 9 12 18 20 21 22 24 26 27 33 34 34 35 34 35 33 28 26 30 31 28 30 32 31 32 27 27 26 23 22 22 20 19 25 30 38
3 3 3 4 6 5 3 4 9 10 8 14 11 9 13 10 16 20 21 25 28 28 31 36 35 36 35 35 31 31 29 28 31 34 31 32 34 31 30 29 28 26 25 24 22 22 26 27 30
5 4 1 3 3 2 5 2 10 11 15 12 11 11 10 10 18 22 23 24 26 28 28 31 31 33 33 34 35 35 31 30 31 34 35 35 34 35 33 30 27 27 27 24 26 28 26 22 26
3 4 7 1 3 3 5 2 4 14 14 10 9 9 8 10 16 19 23 23 25 25 26 28 31 32 31 31 31 32 31 33 33 33 32 35 37 36 37 34 30 30 27 26 30 34 32 26 24
2 3 5 5 4 3 3 5 7 16 13 10 9 7 7 10 15 17 20 23 27 28 27 29 30 33 35 36 37 34 30 33 31 31 33 33 36 37 38 37 34 34 32 31 33 32 37 31 23
4 3 5 8 8 6 2 4 7 10 12 9 8 7 8 8 15 20 21 23 25 29 29 31 31 32 36 38 38 34 33 34 33 31 32 33 35 34 37 36 36 37 36 33 38 37 37 31 29
5 3 8 2 10 6 7 4 9 9 13 9 7 7 7 7 13 17 20 22 24 27 31 36 36 32 29 34 38 35 36 33 34 35 33 34 35 35 36 36 37 39 43 40 38 37 37 30 29
3 6 5 6 2 8 6 9 7 8 11 9 8 6 6 7 7 18 19 21 24 26 26 31 32 35 37 35 32 37 35 34 34 38 35 37 35 34 34 37 39 39 47 44 39 38 36 35 34
5 7 10 10 3 1 7 8 7 11 9 9 7 6 5 6 11 15 15 21 28 26 29 33 34 36 37 36 33 34 34 36 33 34 38 31 29 37 33 33 39 37 34 37 42 39 38 30 31
6 9 11 5 4 3 9 15 7 13 10 9 7 4 5 6 7 12 16 23 28 30 34 38 38 40 41 38 35 38 40 37 36 35 36 36 29 31 33 36 40 38 39 38 41 42 30 28 36
7 8 5 4 7 10 17 14 10 8 6 7 7 4 6 7 6 6 12 20 31 32 35 37 41 43 43 43 35 44 40 36 31 34 33 33 29 26 34 33 38 47 41 40 50 46 40 29 30
5 4 3 7 5 4 7 7 4 14 11 9 7 7 5 5 5 6 12 26 31 31 35 38 40 43 43 36 43 38 36 38 34 35 34 35 31 26 23 30 34 37 44 36 43 52 44 37 35
3 2 6 10 11 10 10 6 5 19 13 11 7 6 6 5 5 7 15 26 30 31 36 37 41 40 39 42 43 41 39 37 43 42 34 37 31 25 25 30 33 37 31 47 39 40 47 44 41
7 6 9 12 8 5 8 6 4 10 15 10 7 6 5 4 5 10 23 27 29 33 36 36 37 39 39 40 44 43 41 40 38 39 37 38 31 27 26 24 29 34 44 44 38 43 45 47 44
3 5 4 5 1 6 5 5 7 6 10 10 7 5 5 5 10 11 15 24 28 35 34 38 41 43 42 41 40 37 39 43 39 37 35 36 26 24 27 25 23 30 29 45 34 41 44 49 45
2 0 4 6 3 5 7 7 4 13 11 9 7 6 6 8 6 11 16 25 29 31 36 38 40 44 44 42 41 38 37 36 37 35 34 35 37 29 27 26 22 31 32 35 45 35 45 38 50
4 4 2 2 2 2 5 6 5 12 9 7 6 7 6 6 7 10 20 26 23 31 33 35 37 42 41 40 41 39 37 37 36 38 37 34 37 36 29 27 25 24 29 29 32 26 43 43 37
2 2 4 1 3 6 5 7 5 8 5 5 5 4 3 5 10 11 17 20 28 29 33 34 35 36 39 41 36 40 38 37 41 38 37 36 34 38 33 30 25 20 27 26 25 30 41 38 40
4 3 4 1 4 5 3 4 7 7 7 3 2 3 7 7 8 11 18 22 28 27 31 34 35 37 39 36 38 40 39 39 36 36 37 33 31 35 36 29 25 22 27 26 26 36 24 44 40
1 6 9 4 5 4 3 14 4 4 9 7 2 4 4 7 9 14 15 26 29 30 34 36 40 40 40 40 41 36 43 37 41 36 34 31 33 30 33 32 27 26 23 21 26 29 31 37 49
Wind_Direction
355 336 299 278 301 192 68 88 252 36 26 45 11 24 306 242 9 32 84 37 359 349 323 307 290 233 223 220 225 231 230 230 229 231 237 251 263 262 258 253 255 253 252 249 242 229 219 221 221
0 311 268 273 243 152 95 63 50 55 45 2 320 353 29 17 48 61 43 359 358 338 338 314 305 263 236 239 234 233 237 238 234 234 238 247 258 261 264 262 259 258 253 246 248 242 224 222 218
345 291 279 227 272 45 55 55 46 76 94 27 360 7 65 10 24 39 13 2 357 352 338 324 306 289 255 249 249 248 247 244 243 242 243 246 254 259 260 261 258 264 254 249 244 245 235 230 213
318 215 262 263 48 91 43 57 27 9 123 107 46 31 81 38 40 18 5 2 358 3 344 314 313 304 283 266 261 255 258 254 253 253 250 248 252 258 260 261 258 256 258 253 249 243 236 235 217
232 264 265 236 108 93 79 61 24 10 42 65 54 349 83 31 25 16 9 9 6 2 353 349 320 317 310 278 268 265 265 262 260 258 256 258 261 261 257 259 256 261 253 257 251 250 240 233 220
298 221 290 340 82 89 84 43 321 26 1 42 65 359 62 34 28 23 27 25 21 12 0 349 332 324 319 311 274 269 264 266 267 262 260 258 260 261 258 251 254 262 260 261 255 249 243 233 221
304 327 322 342 75 147 77 9 46 347 44 32 343 335 57 33 30 35 36 34 30 23 18 11 356 331 320 310 310 282 270 267 271 270 263 260 259 258 259 257 257 257 260 261 263 254 237 231 219
306 281 280 80 40 71 95 330 90 38 69 104 21 33 16 22 36 37 33 31 31 25 20 16 11 355 342 316 309 305 295 282 269 268 269 263 258 257 257 257 256 255 254 260 259 258 232 229 217
301 294 272 39 18 22 90 39 38 140 70 50 66 74 65 41 38 39 34 29 25 23 20 15 11 10 2 344 322 308 298 289 282 277 270 265 257 255 255 254 255 252 251 255 254 255 229 223 207
288 305 30 12 22 18 13 55 22 65 62 43 66 59 58 54 41 36 33 23 19 17 13 11 9 8 5 0 342 324 307 303 286 280 269 265 261 254 251 251 255 253 246 248 250 246 224 215 201
355 312 6 20 47 17 329 56 42 118 55 61 76 67 52 53 45 36 30 24 18 17 14 9 7 5 4 358 355 343 326 313 300 289 275 264 261 252 243 244 244 241 242 242 237 227 215 210 200
288 59 357 31 47 8 7 288 81 79 84 87 76 67 57 41 42 31 24 23 15 13 12 9 6 5 1 358 354 345 337 322 311 298 287 274 263 253 238 239 239 238 235 229 217 201 195 193 198
214 108 218 285 322 30 312 102 129 96 95 94 88 69 58 53 40 30 22 20 14 8 6 7 4 1 356 353 350 343 337 325 318 307 298 286 276 262 250 240 232 225 226 220 207 188 184 174 169
15 306 273 132 98 134 3 355 154 109 114 105 99 85 73 62 45 28 21 15 7 2 0 360 1 358 353 348 342 340 332 330 322 313 298 293 281 268 259 248 234 222 222 207 203 196 188 175 175
292 276 118 189 173 150 326 216 194 120 120 104 85 77 67 67 46 32 16 12 4 1 357 355 353 352 349 344 338 333 328 326 321 317 308 297 288 276 266 256 238 222 218 206 190 189 186 184 179
243 212 199 168 190 155 122 285 103 120 126 105 98 69 47 37 40 24 9 7 4 2 359 349 343 343 341 337 330 321 317 320 321 318 317 312 295 279 267 257 238 220 216 202 193 184 184 198 208
214 316 321 280 188 143 185 267 118 117 121 124 100 69 48 40 29 21 9 5 5 358 355 349 339 330 329 330 324 318 313 310 313 314 317 312 309 292 268 254 243 223 205 196 192 194 196 193 198
324 304 295 285 185 200 264 250 121 134 131 131 101 84 60 44 24 16 8 9 1 348 347 338 330 327 320 316 314 311 307 306 305 309 310 314 305 309 307 261 253 249 192 187 188 187 190 191 190
271 261 270 277 127 191 244 261 265 149 137 134 121 100 68 51 21 14 14 7 354 343 342 334 326 324 318 314 313 311 301 300 299 301 300 307 309 317 317 299 277 239 229 190 182 178 177 177 178
270 269 273 286 146 340 267 260 135 164 166 143 129 112 64 27 21 11 10 359 349 340 337 334 328 324 320 309 308 308 300 292 294 293 294 294 305 306 315 303 289 265 227 186 183 178 178 176 175
281 280 307 285 313 274 273 269 151 159 130 141 157 141 58 33 7 358 360 352 349 340 335 331 326 321 319 310 312 309 297 291 289 291 287 289 293 301 320 302 297 296 241 200 183 181 177 177 184
280 51 317 279 303 240 54 286 104 167 172 180 154 87 50 16 3 340 345 359 345 334 330 327 324 322 316 318 315 310 312 298 297 283 288 289 290 296 312 308 282 292 297 240 193 182 179 178 183
251 343 257 259 251 284 254 255 288 158 188 181 141 92 44 12 358 324 1 351 336 330 328 327 323 321 320 315 312 308 300 304 302 295 286 287 288 287 295 319 301 297 268 280 207 178 180 185 182
323 287 273 251 256 266 258 226 217 179 197 142 124 71 41 357 324 353 357 335 330 331 328 329 328 323 321 320 315 308 309 316 318 304 290 288 286 283 284 303 306 293 289 293 224 188 184 185 186
227 290 325 332 27 230 85 334 246 142 104 125 107 62 32 352 12 358 335 335 330 332 330 331 328 323 323 321 317 315 312 309 307 306 317 291 280 277 275 286 298 287 289 273 261 195 190 188 186
203 10 163 259 261 267 14 252 245 127 128 135 87 70 31 19 353 337 331 330 330 330 329 329 326 323 322 321 319 316 311 306 307 302 309 307 311 278 270 271 298 302 301 293 283 226 193 200 183
147 198 360 332 62 353 232 262 76 139 152 96 43 37 22 347 337 334 333 328 329 326 326 324 324 321 319 319 318 315 311 309 308 309 306 299 304 310 278 275 283 300 302 300 291 297 194 194 195
264 155 85 142 292 266 251 252 232 185 159 81 19 358 335 347 344 335 326 317 330 322 322 320 321 319 317 318 315 315 310 308 305 302 304 304 302 301 291 263 265 285 295 300 290 271 258 191 193
165 224 223 337 196 220 293 249 154 158 167 130 340 10 7 343 329 328 316 326 324 321 319 319 321 322 320 319 319 314 312 306 303 304 301 302 305 305 313 274 256 276 286 303 296 264 262 178 188
301 220 181 165 240 252 246 261 328 335 148 127 77 32 331 331 327 325 321 328 324 324 324 323 323 324 322 319 318 316 314 307 304 299 299 303 305 303 302 302 260 253 267 300 303 298 256 207 187